CDT,Max TemperatureF,Mean TemperatureF,Min TemperatureF,Max Dew PointF,MeanDew PointF,Min DewpointF,Max Humidity, Mean Humidity, Min Humidity, Max Sea Level PressureIn, Mean Sea Level PressureIn, Min Sea Level PressureIn, Max VisibilityMiles, Mean VisibilityMiles, Min VisibilityMiles, Max Wind SpeedMPH, Mean Wind SpeedMPH, Max Gust SpeedMPH,PrecipitationIn, CloudCover, Events, WindDirDegrees
2013-10-1,85,70,55,63,58,51,80,62,44,29.91,29.87,29.81,10,10,10,18,10,23,0.00,0,,150
2013-10-2,85,75,65,70,67,62,100,79,58,29.97,29.90,29.80,10,7,0,22,13,28,0.00,4,Fog,158
2013-10-3,89,80,71,68,67,65,90,68,46,29.80,29.73,29.64,10,10,10,30,20,38,0.00,4,,174
2013-10-4,90,73,55,68,63,34,79,60,40,29.97,29.74,29.66,10,9,0,36,20,48,0.31,5,Fog-Rain-Thunderstorm,210
2013-10-5,66,56,45,38,33,30,76,54,31,30.13,30.04,29.98,10,10,10,24,14,32,0.00,4,,301
2013-10-6,70,58,45,39,32,23,65,41,17,30.07,30.02,29.98,10,10,10,25,13,31,0.00,1,,307
2013-10-7,75,58,41,42,37,34,76,51,25,30.20,30.11,30.06,10,10,10,13,6,16,0.00,0,,220
2013-10-8,78,62,45,50,44,40,89,60,31,30.08,30.01,29.94,10,10,10,25,13,30,0.00,2,,165
2013-10-9,81,67,53,55,51,48,83,58,33,30.01,29.96,29.92,10,10,10,23,14,29,0.00,1,,160
2013-10-10,82,70,57,58,56,53,86,65,43,29.97,29.89,29.77,10,10,10,26,16,35,0.00,1,,163
2013-10-11,83,71,59,61,51,32,84,51,17,29.89,29.75,29.69,10,10,10,24,16,39,T,3,,201
2013-10-12,74,63,52,45,39,35,59,42,25,30.23,30.09,29.90,10,10,10,16,11,29,0.00,1,,33
2013-10-13,72,60,47,50,43,37,71,52,33,30.32,30.25,30.18,10,10,10,22,13,28,0.00,4,,86
2013-10-14,65,62,58,64,56,47,100,78,56,30.16,29.98,29.81,10,8,2,29,14,37,0.42,8,Rain,146
2013-10-15,63,54,44,56,41,37,93,66,39,30.16,30.06,29.92,10,10,10,25,15,31,0.00,3,,332
2013-10-16,56,47,38,43,38,35,100,74,47,30.18,30.12,30.05,10,10,8,14,7,17,T,5,Rain,302
2013-10-17,69,53,36,44,38,28,100,62,24,30.07,30.02,29.95,10,8,2,18,7,24,0.00,2,,264
2013-10-18,48,39,30,39,36,31,100,83,66,30.20,30.14,30.06,10,8,2,21,9,28,0.28,6,Rain-Snow,360
2013-10-19,67,48,29,41,35,28,100,67,34,30.17,30.05,29.93,10,10,10,21,8,24,0.00,0,,225
2013-10-20,72,56,39,46,41,36,89,62,35,29.95,29.87,29.79,10,10,10,10,8,14,0.00,3,,202
2013-10-21,62,53,44,43,37,32,76,56,36,30.15,30.07,29.96,10,10,10,16,9,20,0.00,3,,343
2013-10-22,71,57,42,43,40,38,82,57,31,30.10,30.02,29.99,10,10,10,21,11,32,0.00,3,,301
2013-10-23,68,52,36,44,39,35,92,66,40,30.18,30.10,30.01,10,10,10,18,7,24,0.00,1,,203
2013-10-24,56,48,39,41,33,28,79,59,38,30.44,30.33,30.14,10,10,10,20,10,25,0.00,0,,44
2013-10-25,60,46,32,39,32,25,82,55,28,30.46,30.33,30.16,10,10,9,20,10,24,0.00,3,,164
2013-10-26,68,53,37,51,38,23,83,52,20,30.19,30.15,30.10,10,10,8,18,7,25,0.01,4,Rain,11
2013-10-27,67,48,29,36,31,26,89,57,24,30.18,30.06,29.94,10,10,10,17,7,21,0.00,0,,197
2013-10-28,67,54,41,56,52,33,100,84,68,30.08,30.01,29.95,10,6,0,20,13,25,0.03,7,Fog,157
2013-10-29,71,65,58,66,61,54,100,90,79,29.99,29.93,29.88,10,8,1,24,9,33,1.17,8,Rain-Thunderstorm,151
2013-10-30,73,63,52,67,59,50,100,92,84,29.96,29.81,29.71,10,7,2,23,11,29,0.17,8,Rain-Thunderstorm,357
2013-10-31,66,56,45,50,46,38,96,68,39,29.75,29.67,29.61,10,9,4,24,12,31,0.66,5,Rain,322